FENGYUN 1C DEB, 30802

Orbit data source: Space-Track

FENGYUN 1C DEB, 30802 is space debris in SSO originally from a launch on Mon, 10 May 1999 UTC launched from the Taiyaun Space Center, China (TSC). Fengyun 1C debris stems from the Chinese weather satellite Fengyun-1C, which was intentionally destroyed by a Chinese anti-satellite missile in 2007. This event dramatically increased the amount of space debris, with thousands of trackable fragments posing hazards to satellites and human spaceflight. The Fengyun 1C debris cloud has become a focal point in discussions about space sustainability and the need for international regulations to prevent the creation of new debris.

Loading next visibility...
Identifier
30802, 1999-025AUL
Orbit
SSO
Country
Flag of CNCN / PRC
Related business
Manufacturer
Unknown
Mission
Spacecraft
Bus & Motor
Unknown
Mass
Unknown
Launch date (UTC)
1999-05-10 (27 years ago)
Launch vehicle
Unknown
Launch site
Taiyaun Space Center, China (TSC)
Object type
Payload
Rocket body
Debris
Shape & HBR
Unknown shape, 0.1 m
Radar Cross Section
Medium (>0.1 m² and <1 m²)

Expand to show TLE details & history
Last TLE update: 14 hours ago

TLE from 14 hours ago
0 FENGYUN 1C DEB
1 30802U 99025AUL 26165.84086271  .00003375  00000-0  12188-2 0  9994
2 30802  98.8339 261.3417 0019186 211.8645 275.5409 14.34147262998407
Epoch: 2026-06-14T20:10Z
TLE epoch observation values (Epoch: 2026-06-14T20:10:50.538Z)
Latitude
52.02806°
Longitude
-113.08102°
Altitude
784.998 km
Speed
7.467 km/s
True Right ascension
06h 11m 03s
True Declination
51° 51' 42"
Sunlit
Object was in daylight at epoch
Visualization orbit readout
Latitude
Unknown
Longitude
Unknown
Altitude
Unknown
Speed
Unknown
Apparent Right ascension
Unknown
Apparent Declination
Unknown
Sunlit
N/A
Visualization observer readout
Local Sidereal Time
20:31:18
Azimuth
Unknown
Elevation
Unknown
Doppler factor
Unknown
Orbital elements
Apogee altitude
788.771 km
Perigee altitude
761.323 km
Semi-major axis
7,153.184 km
Eccentricity
0.00192
Inclination
98.8339°
RAAN
261.3417°
Arg. of periapsis
211.8645°
True anomaly
275.32202°
Mean anomaly
275.5409°
Eccentric anomaly
275.43147°
Mean motion
3.58752 °/min
Orbital period
100.35 mins
BSTAR
0.0012188
Loading maneuver chart data...
Computing Atmospheric mass density...

Documentation

Showing up to 5 results
|